QPF
0.00 0.00 0.00 0.00 0.00 0.00 0.00 0.00 0.00 0.00 0.00 0.00 0.00 0.00 0.00 0.00 0.00 0.00 0.00 0.00 0.00 0.00 0.00 0.00 0.00 0.00 0.00 0.00 0.00 0.00 0.00 0.00 0.00 0.00 0.00 0.00 0.00 0.00 0.00 0.00 0.00 0.00 0.00 0.00 0.00
0.00 0.00 0.00 0.00 0.00 0.00 0.00 0.00 0.00 0.00 0.00 0.00 0.00 0.00 0.00 0.00 0.00 0.00 0.00 0.00 0.00 0.00 0.00 0.00 0.00 0.00 0.00 0.00 0.00 0.00 0.00 0.00 0.00 0.00 0.00 0.00 0.00 0.00 0.00 0.00 0.00 0.00 0.00 0.00 0.00
0.00 0.00 0.00 0.00 0.00 0.00 0.00 0.00 0.00 0.00 0.00 0.00 0.00 0.00 0.00 0.00 0.00 0.00 0.00 0.00 0.00 0.00 0.00 0.00 0.00 0.00 0.00 0.00 0.00 0.00 0.00 0.00 0.00 0.00 0.00 0.00 0.00 0.00 0.00 0.00 0.00 0.00 0.00 0.00 0.00
0.00 0.00 0.00 0.00 0.00 0.00 0.00 0.00 0.00 0.00 0.00 0.00 0.00 0.00 0.00 0.00 0.00 0.00 0.00 0.00 0.00 0.00 0.00 0.00 0.00 0.00 0.00 0.00 0.00 0.00 0.00 0.00 0.00 0.00 0.00 0.00 0.00 0.00 0.00 0.00 0.00 0.00 0.00 0.00 0.00
0.00 0.00 0.00 0.00 0.00 0.00 0.00 0.00 0.00 0.00 0.00 0.00 0.00 0.00 0.00 0.00 0.00 0.00 0.00 0.00 0.00 0.00 0.00 0.00 0.00 0.00 0.00 0.00 0.00 0.00 0.00 0.00 0.00 0.00 0.00 0.00 0.00 0.00 0.00 0.00 0.00 0.00 0.00 0.00 0.00
0.00 0.00 0.00 0.00 0.00 0.00 0.00 0.00 0.00 0.00 0.00 0.00 0.00 0.00 0.00 0.00 0.00 0.00 0.00 0.00 0.00 0.00 0.00 0.00 0.00 0.00 0.00 0.00 0.00 0.00 0.00 0.00 0.00 0.00 0.00 0.00 0.00 0.00 0.00 0.00 0.00 0.00 0.00 0.00 0.00
0.00 0.00 0.00 0.00 0.00 0.00 0.00 0.00 0.00 0.00 0.00 0.00 0.00 0.00 0.00 0.00 0.00 0.00 0.00 0.00 0.00 0.00 0.00 0.00 0.00 0.00 0.00 0.00 0.00 0.00 0.00 0.00 0.00 0.00 0.00 0.00 0.00 0.00 0.00 0.00 0.00 0.00 0.00 0.00 0.00
0.00 0.00 0.00 0.00 0.00 0.00 0.00 0.00 0.00 0.00 0.00 0.00 0.00 0.00 0.00 0.00 0.00 0.00 0.00 0.00 0.00 0.00 0.00 0.00 0.00 0.00 0.00 0.00 0.00 0.00 0.00 0.00 0.00 0.00 0.00 0.00 0.00 0.00 0.00 0.00 0.00 0.00 0.00 0.00 0.00
0.00 0.00 0.00 0.00 0.00 0.00 0.00 0.00 0.00 0.00 0.00 0.00 0.00 0.00 0.00 0.00 0.00 0.00 0.00 0.00 0.00 0.00 0.00 0.00 0.00 0.00 0.00 0.00 0.00 0.00 0.00 0.00 0.00 0.00 0.00 0.00 0.00 0.00 0.00 0.00 0.00 0.00 0.00 0.00 0.00
0.00 0.00 0.00 0.00 0.00 0.00 0.00 0.00 0.00 0.00 0.00 0.00 0.00 0.00 0.00 0.00 0.00 0.00 0.00 0.00 0.00 0.00 0.00 0.00 0.00 0.00 0.00 0.00 0.00 0.00 0.00 0.00 0.00 0.00 0.00 0.00 0.00 0.00 0.00 0.00 0.00 0.00 0.00 0.00 0.00
0.00 0.00 0.00 0.00 0.00 0.00 0.00 0.00 0.00 0.00 0.00 0.00 0.00 0.00 0.00 0.00 0.00 0.00 0.00 0.00 0.00 0.00 0.00 0.00 0.00 0.00 0.00 0.00 0.00 0.00 0.00 0.00 0.00 0.00 0.00 0.00 0.00 0.00 0.00 0.00 0.00 0.00 0.00 0.00 0.00
0.00 0.00 0.00 0.00 0.00 0.00 0.00 0.00 0.00 0.00 0.00 0.00 0.00 0.00 0.00 0.00 0.00 0.00 0.00 0.00 0.00 0.00 0.00 0.00 0.00 0.00 0.00 0.00 0.00 0.00 0.00 0.00 0.00 0.00 0.00 0.00 0.00 0.00 0.00 0.00 0.00 0.00 0.00 0.00 0.00
0.00 0.00 0.00 0.00 0.00 0.00 0.00 0.00 0.00 0.00 0.00 0.00 0.00 0.00 0.00 0.00 0.00 0.00 0.00 0.00 0.00 0.00 0.00 0.00 0.00 0.00 0.00 0.00 0.00 0.00 0.00 0.00 0.00 0.00 0.00 0.00 0.00 0.00 0.00 0.00 0.00 0.00 0.00 0.00 0.00
0.00 0.00 0.00 0.00 0.00 0.00 0.00 0.00 0.00 0.00 0.00 0.00 0.00 0.00 0.00 0.00 0.00 0.00 0.00 0.00 0.00 0.00 0.00 0.00 0.00 0.00 0.00 0.00 0.00 0.00 0.00 0.00 0.00 0.00 0.00 0.00 0.00 0.00 0.00 0.00 0.00 0.00 0.00 0.00 0.00
0.00 0.00 0.00 0.00 0.00 0.00 0.00 0.00 0.00 0.00 0.00 0.00 0.00 0.00 0.00 0.00 0.00 0.00 0.00 0.00 0.00 0.00 0.00 0.00 0.00 0.00 0.00 0.00 0.00 0.00 0.00 0.00 0.00 0.00 0.00 0.00 0.00 0.00 0.00 0.00 0.00 0.00 0.00 0.00 0.00
0.00 0.00 0.00 0.00 0.00 0.00 0.00 0.00 0.00 0.00 0.00 0.00 0.00 0.00 0.00 0.00 0.00 0.00 0.00 0.00 0.00 0.00 0.00 0.00 0.00 0.00 0.00 0.00 0.00 0.00 0.00 0.00 0.00 0.00 0.00 0.00 0.00 0.00 0.00 0.00 0.00 0.00 0.00 0.00 0.00
0.00 0.00 0.00 0.00 0.00 0.00 0.00 0.00 0.00 0.00 0.00 0.00 0.00 0.00 0.00 0.00 0.00 0.00 0.00 0.00 0.00 0.00 0.00 0.00 0.00 0.00 0.00 0.00 0.00 0.00 0.00 0.00 0.00 0.00 0.00 0.00 0.00 0.00 0.00 0.00 0.00 0.00 0.00 0.00 0.00
0.00 0.00 0.00 0.00 0.00 0.00 0.00 0.00 0.00 0.00 0.00 0.00 0.00 0.00 0.00 0.00 0.00 0.00 0.00 0.00 0.00 0.00 0.00 0.00 0.00 0.00 0.00 0.00 0.00 0.00 0.00 0.00 0.00 0.00 0.00 0.00 0.00 0.00 0.00 0.00 0.00 0.00 0.00 0.00 0.00
0.00 0.00 0.00 0.00 0.00 0.00 0.00 0.00 0.00 0.00 0.00 0.00 0.00 0.00 0.00 0.00 0.00 0.00 0.00 0.00 0.00 0.00 0.00 0.00 0.00 0.00 0.00 0.00 0.00 0.00 0.00 0.00 0.00 0.00 0.00 0.00 0.00 0.00 0.00 0.00 0.00 0.00 0.00 0.00 0.00
0.00 0.00 0.00 0.00 0.00 0.00 0.00 0.00 0.00 0.00 0.00 0.00 0.00 0.00 0.00 0.00 0.00 0.00 0.00 0.00 0.00 0.00 0.00 0.00 0.00 0.00 0.00 0.00 0.00 0.00 0.00 0.00 0.00 0.00 0.00 0.00 0.00 0.00 0.00 0.00 0.00 0.00 0.00 0.00 0.00
0.00 0.00 0.00 0.00 0.00 0.00 0.00 0.00 0.00 0.00 0.00 0.00 0.00 0.00 0.00 0.00 0.00 0.00 0.00 0.00 0.00 0.00 0.00 0.00 0.00 0.00 0.00 0.00 0.00 0.00 0.00 0.00 0.00 0.00 0.00 0.00 0.00 0.00 0.00 0.00 0.00 0.00 0.00 0.00 0.00
0.00 0.00 0.00 0.00 0.00 0.00 0.00 0.00 0.00 0.00 0.00 0.00 0.00 0.00 0.00 0.00 0.00 0.00 0.00 0.00 0.00 0.00 0.00 0.00 0.00 0.00 0.00 0.00 0.00 0.00 0.00 0.00 0.00 0.00 0.00 0.00 0.00 0.00 0.00 0.00 0.00 0.00 0.00 0.00 0.00
0.00 0.00 0.00 0.00 0.00 0.00 0.00 0.00 0.00 0.00 0.00 0.00 0.00 0.00 0.00 0.00 0.00 0.00 0.00 0.00 0.00 0.00 0.00 0.00 0.00 0.00 0.00 0.00 0.00 0.00 0.00 0.00 0.00 0.00 0.00 0.00 0.00 0.00 0.00 0.00 0.00 0.00 0.00 0.00 0.00
0.00 0.00 0.00 0.00 0.00 0.00 0.00 0.00 0.00 0.00 0.00 0.00 0.00 0.00 0.00 0.00 0.00 0.00 0.00 0.00 0.00 0.00 0.00 0.00 0.00 0.00 0.00 0.00 0.00 0.00 0.00 0.00 0.00 0.00 0.00 0.00 0.00 0.00 0.00 0.00 0.00 0.00 0.00 0.00 0.00
0.00 0.00 0.00 0.00 0.00 0.00 0.00 0.00 0.00 0.00 0.01 0.01 0.00 0.00 0.00 0.00 0.00 0.00 0.00 0.00 0.00 0.00 0.00 0.00 0.00 0.00 0.00 0.00 0.00 0.00 0.00 0.00 0.00 0.00 0.00 0.00 0.00 0.00 0.00 0.00 0.00 0.00 0.00 0.00 0.00
0.00 0.00 0.00 0.00 0.00 0.00 0.00 0.00 0.00 0.01 0.02 0.03 0.02 0.00 0.00 0.00 0.00 0.00 0.00 0.00 0.00 0.00 0.00 0.00 0.00 0.00 0.00 0.00 0.00 0.00 0.00 0.00 0.00 0.00 0.00 0.00 0.00 0.00 0.00 0.00 0.00 0.00 0.00 0.00 0.00
0.00 0.00 0.00 0.00 0.00 0.00 0.01 0.00 0.00 0.00 0.00 0.00 0.01 0.01 0.00 0.00 0.00 0.00 0.00 0.00 0.00 0.00 0.00 0.00 0.00 0.00 0.00 0.00 0.00 0.00 0.00 0.00 0.00 0.00 0.00 0.00 0.00 0.00 0.00 0.00 0.00 0.00 0.00 0.00 0.00
MSLP
1018.02 1017.58 1017.17 1016.81 1016.48 1016.13 1015.81 1015.51 1015.18 1014.88 1014.67 1014.48 1014.26 1013.93 1013.54 1013.04 1012.11 1012.10 1011.64 1010.28 1010.20 1010.15 1010.25 1010.06 1009.99 1010.28 1010.55 1010.60 1010.09 1010.49 1011.79 1012.15 1011.23 1009.81 1009.08 1007.75 1007.30 1007.59 1007.88 1007.94 1008.72 1009.66 1010.61 1012.12 1012.12
1018.15 1017.62 1017.13 1016.70 1016.34 1016.04 1015.72 1015.38 1015.04 1014.76 1014.56 1014.38 1014.17 1013.76 1013.50 1013.16 1012.54 1011.42 1009.66 1009.49 1009.78 1010.07 1010.11 1010.27 1010.34 1010.42 1010.64 1010.23 1010.00 1010.44 1011.40 1010.90 1010.05 1009.18 1008.78 1008.24 1007.82 1007.93 1008.60 1009.31 1010.02 1010.24 1011.80 1012.20 1011.77
1018.24 1017.70 1017.20 1016.68 1016.22 1015.89 1015.57 1015.22 1014.89 1014.61 1014.37 1014.18 1013.97 1013.65 1013.47 1013.22 1012.51 1010.47 1009.07 1009.30 1009.61 1009.88 1009.99 1010.20 1010.37 1010.47 1010.38 1009.94 1009.82 1009.85 1010.12 1009.53 1009.19 1008.61 1008.12 1008.48 1008.48 1008.65 1009.10 1010.37 1010.73 1011.30 1011.56 1011.94 1012.86
1018.37 1017.74 1017.15 1016.64 1016.16 1015.71 1015.33 1014.98 1014.67 1014.46 1014.29 1014.02 1013.74 1013.49 1013.31 1013.18 1011.95 1009.55 1009.02 1009.27 1009.52 1009.79 1009.86 1009.95 1009.98 1010.08 1009.92 1009.78 1009.14 1009.33 1008.86 1008.77 1008.68 1008.13 1008.13 1008.61 1009.02 1009.62 1009.72 1010.76 1010.93 1011.22 1011.34 1011.70 1012.43
1018.30 1017.73 1017.14 1016.48 1015.92 1015.40 1014.99 1014.66 1014.40 1014.19 1014.07 1013.86 1013.57 1013.37 1013.06 1012.59 1010.79 1008.80 1008.87 1009.18 1009.59 1009.62 1009.62 1009.77 1009.78 1009.72 1009.65 1009.34 1008.80 1008.63 1008.48 1008.18 1008.28 1007.96 1008.33 1008.35 1009.23 1009.75 1010.49 1010.73 1010.78 1011.12 1011.46 1012.13 1012.88
1018.30 1017.67 1016.99 1016.36 1015.73 1015.16 1014.67 1014.31 1014.05 1013.90 1013.78 1013.60 1013.40 1013.39 1012.98 1011.50 1008.79 1008.42 1008.71 1009.27 1009.33 1009.31 1009.17 1009.24 1009.25 1008.88 1009.24 1009.16 1008.91 1008.43 1008.32 1008.26 1008.12 1008.10 1008.13 1008.54 1009.58 1009.60 1010.76 1010.44 1010.84 1011.14 1011.85 1012.25 1012.71
1018.35 1017.71 1017.02 1016.28 1015.57 1014.93 1014.37 1013.93 1013.64 1013.54 1013.42 1013.26 1013.23 1013.06 1012.30 1010.01 1008.32 1008.34 1008.71 1008.76 1008.72 1008.90 1008.65 1008.48 1008.58 1008.81 1009.13 1009.18 1008.64 1008.54 1008.56 1008.61 1008.37 1008.16 1008.35 1008.47 1009.47 1009.90 1009.99 1010.08 1010.85 1011.40 1011.92 1012.36 1012.73
1018.39 1017.70 1017.01 1016.22 1015.42 1014.74 1014.01 1013.49 1013.22 1013.12 1013.03 1012.86 1012.95 1012.77 1011.15 1008.38 1008.27 1008.75 1008.82 1008.60 1008.30 1007.96 1008.06 1008.11 1008.24 1008.71 1009.23 1009.16 1008.98 1009.10 1009.41 1009.56 1008.48 1008.44 1008.40 1008.69 1009.76 1009.94 1009.86 1010.10 1010.94 1011.50 1011.99 1012.46 1012.86
1018.35 1017.68 1016.91 1016.16 1015.28 1014.46 1013.60 1012.99 1012.66 1012.64 1012.77 1012.84 1012.86 1012.29 1010.30 1008.12 1008.02 1007.61 1007.76 1007.93 1007.91 1007.78 1007.76 1007.95 1008.36 1009.05 1009.40 1009.94 1010.26 1010.24 1010.12 1009.78 1009.09 1008.46 1008.51 1009.24 1010.07 1009.82 1009.87 1010.27 1010.95 1011.42 1012.04 1012.52 1012.93
1018.46 1017.58 1016.74 1015.94 1015.14 1014.26 1013.20 1012.50 1012.09 1012.08 1012.50 1012.52 1012.14 1011.90 1009.66 1008.23 1007.52 1007.40 1007.26 1007.35 1007.74 1007.84 1008.22 1008.45 1009.18 1009.70 1010.23 1010.51 1010.93 1010.49 1010.14 1009.34 1008.75 1008.65 1008.72 1009.33 1009.82 1010.00 1010.11 1010.30 1010.88 1011.52 1012.07 1012.49 1012.78
1018.55 1017.71 1016.62 1015.57 1014.82 1014.10 1013.15 1012.20 1012.42 1012.19 1011.83 1011.29 1010.74 1009.93 1008.56 1007.67 1007.20 1007.32 1007.30 1007.45 1007.84 1008.35 1008.92 1009.00 1009.80 1010.10 1009.95 1009.97 1009.82 1009.81 1009.80 1009.48 1008.78 1008.70 1009.02 1009.50 1009.80 1010.14 1010.16 1010.70 1011.14 1011.70 1012.17 1012.49 1012.59
1018.74 1017.77 1016.77 1015.28 1014.20 1013.66 1013.58 1012.91 1011.53 1011.16 1010.68 1009.62 1009.20 1008.74 1008.07 1007.78 1007.72 1007.26 1007.23 1007.88 1008.23 1008.70 1009.10 1009.58 1009.54 1009.33 1009.12 1009.21 1009.35 1009.55 1009.61 1009.59 1009.32 1009.18 1009.68 1010.25 1010.46 1010.43 1010.55 1010.65 1010.96 1011.70 1012.26 1012.39 1012.34
1018.93 1018.02 1017.00 1015.58 1013.81 1013.66 1013.29 1011.77 1010.35 1010.48 1010.54 1008.37 1007.47 1007.46 1007.35 1007.29 1007.26 1007.16 1007.42 1007.86 1008.30 1008.71 1009.04 1009.31 1008.81 1008.46 1008.61 1008.93 1009.14 1009.84 1010.03 1010.24 1010.42 1010.38 1010.51 1010.85 1011.40 1011.29 1011.57 1011.37 1011.55 1012.10 1012.08 1012.02 1012.00
1018.85 1018.21 1017.50 1016.17 1013.66 1014.37 1012.57 1010.87 1010.52 1010.59 1010.59 1008.30 1006.75 1006.01 1006.52 1006.78 1007.00 1006.72 1007.15 1007.80 1008.38 1008.78 1008.81 1008.88 1008.35 1008.22 1008.41 1008.66 1009.10 1009.86 1010.20 1010.50 1010.85 1011.38 1011.77 1011.78 1012.92 1012.68 1012.99 1012.84 1012.55 1012.38 1012.40 1012.36 1012.18
1018.83 1018.05 1017.63 1017.42 1016.39 1014.90 1011.85 1010.88 1010.62 1010.55 1010.58 1007.10 1006.03 1004.84 1005.94 1006.66 1006.95 1007.06 1006.96 1007.51 1008.38 1009.04 1009.42 1009.36 1008.73 1008.40 1008.46 1008.84 1009.11 1009.93 1010.28 1011.06 1011.66 1012.58 1013.22 1013.14 1013.74 1013.68 1013.79 1013.68 1013.30 1012.86 1012.52 1012.40 1012.46
1018.53 1017.76 1017.52 1016.80 1016.40 1013.30 1012.26 1011.46 1011.09 1011.54 1009.55 1006.87 1005.65 1005.67 1006.51 1006.60 1006.98 1007.30 1007.38 1007.66 1008.21 1008.96 1009.24 1009.20 1008.68 1008.41 1008.48 1008.80 1009.22 1009.91 1010.93 1012.14 1013.15 1014.18 1014.84 1013.92 1014.29 1014.27 1013.97 1013.82 1013.60 1013.15 1012.94 1012.78 1012.46
1018.03 1016.88 1017.09 1016.22 1014.06 1012.23 1012.34 1012.03 1012.39 1011.11 1008.43 1006.90 1006.12 1006.05 1006.42 1006.83 1007.30 1007.44 1007.92 1008.41 1008.97 1009.61 1010.06 1009.36 1008.83 1008.42 1008.51 1009.14 1009.69 1010.57 1012.65 1014.38 1015.56 1016.28 1015.87 1014.48 1014.56 1014.24 1013.41 1013.12 1013.08 1013.08 1012.94 1012.63 1012.47
1017.20 1015.83 1014.27 1013.38 1012.52 1012.93 1012.98 1013.19 1012.54 1009.96 1008.42 1006.72 1006.42 1006.09 1006.56 1006.74 1007.16 1007.58 1008.14 1008.75 1008.94 1009.44 1010.19 1010.10 1009.46 1008.85 1008.56 1009.24 1010.10 1010.97 1012.84 1015.01 1016.57 1017.39 1016.74 1015.22 1014.97 1014.28 1013.48 1013.11 1012.90 1012.76 1012.67 1012.58 1012.35
1016.53 1014.82 1013.81 1011.30 1011.77 1012.67 1013.44 1013.33 1011.92 1009.97 1008.43 1007.63 1006.61 1006.69 1006.92 1006.86 1006.85 1007.31 1007.72 1008.16 1008.36 1008.86 1010.02 1010.18 1009.94 1009.06 1008.86 1009.17 1010.05 1011.16 1012.66 1013.91 1016.13 1017.66 1017.49 1016.34 1015.44 1014.37 1013.60 1013.07 1012.75 1012.57 1012.49 1012.52 1012.59
1017.37 1015.86 1013.37 1010.70 1011.20 1012.04 1012.98 1012.60 1011.10 1009.41 1008.52 1008.18 1008.03 1007.24 1007.09 1006.78 1007.04 1007.28 1007.30 1007.19 1007.92 1008.16 1008.38 1010.12 1010.37 1009.76 1009.49 1009.51 1010.00 1010.84 1012.24 1014.18 1016.31 1018.00 1018.26 1016.95 1015.69 1014.57 1013.86 1013.29 1012.76 1012.61 1012.72 1012.71 1012.75
1017.74 1016.23 1011.47 1010.72 1010.99 1012.28 1012.62 1011.97 1010.60 1009.45 1009.17 1008.72 1008.23 1007.92 1007.32 1006.89 1007.00 1007.12 1007.07 1006.79 1007.12 1008.05 1008.48 1009.82 1010.65 1010.85 1010.13 1010.35 1010.65 1011.41 1012.29 1013.97 1015.81 1017.24 1018.03 1017.51 1015.84 1013.48 1013.22 1012.86 1012.85 1012.75 1012.70 1012.75 1013.17
1019.04 1016.77 1011.46 1010.96 1012.20 1012.78 1012.72 1011.75 1010.71 1009.79 1009.32 1009.05 1008.23 1007.76 1006.86 1006.90 1007.10 1007.15 1006.92 1006.52 1006.79 1007.42 1009.14 1010.09 1011.52 1012.09 1011.48 1010.36 1010.41 1010.94 1011.88 1013.32 1015.48 1016.94 1017.24 1016.77 1014.89 1012.73 1012.67 1012.50 1012.51 1012.63 1012.70 1013.00 1013.02
1020.43 1017.59 1012.44 1012.01 1013.53 1013.91 1013.05 1012.19 1011.21 1010.25 1009.58 1008.65 1008.11 1007.56 1006.86 1006.96 1007.33 1007.14 1006.92 1006.69 1006.94 1008.12 1009.07 1010.20 1011.98 1012.83 1012.30 1011.58 1010.89 1011.19 1011.62 1012.54 1014.00 1015.29 1016.12 1016.51 1014.35 1012.90 1012.48 1012.73 1012.86 1013.09 1013.11 1013.14 1013.62
1020.75 1018.76 1015.64 1014.79 1015.30 1015.34 1014.76 1013.28 1011.97 1010.36 1009.77 1009.43 1008.41 1007.18 1007.21 1007.30 1007.41 1007.46 1007.39 1007.40 1007.65 1008.36 1009.17 1009.95 1012.26 1012.99 1013.00 1012.52 1012.25 1011.99 1011.90 1012.17 1013.24 1014.64 1014.85 1014.66 1013.66 1013.35 1012.96 1013.02 1013.19 1013.44 1013.48 1013.42 1013.78
1020.86 1019.91 1018.69 1017.73 1016.56 1016.21 1015.44 1014.09 1012.66 1011.21 1010.47 1010.06 1009.11 1009.24 1008.68 1008.38 1007.96 1007.98 1007.85 1008.42 1008.66 1009.15 1009.92 1010.76 1012.42 1012.86 1012.83 1012.62 1012.24 1012.00 1011.83 1011.88 1012.54 1012.99 1013.74 1013.28 1013.09 1012.85 1012.82 1012.93 1013.06 1013.13 1013.34 1013.80 1014.20
1020.93 1020.40 1019.84 1019.04 1017.90 1016.85 1015.62 1014.77 1013.58 1012.39 1011.49 1011.08 1011.16 1010.22 1009.29 1009.75 1009.45 1008.30 1008.01 1008.48 1009.12 1009.99 1010.52 1011.38 1012.70 1012.97 1013.05 1012.54 1012.26 1011.99 1011.70 1011.66 1011.73 1011.95 1012.13 1012.35 1012.82 1012.68 1012.84 1013.07 1013.40 1013.56 1013.97 1014.28 1014.46
1021.29 1020.72 1020.43 1019.58 1018.52 1017.69 1016.34 1015.65 1014.54 1013.68 1011.33 1010.60 1010.70 1010.94 1010.42 1010.10 1009.62 1008.90 1008.54 1008.47 1008.87 1009.90 1011.06 1011.79 1012.58 1013.53 1013.74 1013.00 1012.63 1012.08 1011.09 1011.23 1011.55 1011.81 1011.73 1012.36 1012.75 1013.10 1013.43 1013.49 1013.59 1013.94 1014.22 1014.77 1015.31
Thickness
5728 5731 5735 5737 5740 5742 5744 5747 5749 5752 5754 5756 5758 5761 5764 5769 5776 5777 5772 5787 5791 5794 5794 5793 5792 5789 5786 5779 5790 5785 5738 5724 5748 5764 5769 5791 5793 5802 5804 5794 5789 5784 5772 5764 5762
5726 5730 5734 5737 5740 5742 5744 5746 5749 5751 5753 5755 5758 5761 5764 5766 5770 5772 5794 5796 5794 5792 5789 5781 5776 5779 5769 5777 5781 5762 5731 5750 5767 5777 5774 5784 5789 5790 5781 5779 5773 5777 5774 5774 5775
5724 5729 5732 5736 5740 5742 5744 5746 5749 5751 5754 5756 5758 5762 5763 5764 5762 5772 5797 5795 5794 5792 5790 5785 5780 5773 5765 5778 5775 5769 5746 5766 5780 5783 5787 5780 5781 5788 5772 5756 5764 5762 5768 5773 5762
5722 5727 5732 5735 5739 5742 5745 5747 5749 5751 5753 5756 5759 5761 5762 5762 5741 5785 5796 5794 5793 5791 5787 5780 5775 5768 5765 5764 5777 5764 5774 5777 5780 5786 5784 5773 5778 5767 5770 5761 5771 5768 5771 5770 5763
5722 5726 5730 5735 5739 5743 5746 5748 5750 5752 5753 5755 5758 5760 5762 5754 5759 5794 5795 5793 5791 5788 5780 5774 5768 5767 5759 5768 5774 5772 5775 5783 5781 5783 5778 5779 5766 5763 5758 5768 5773 5770 5765 5756 5750
5721 5725 5730 5734 5739 5743 5746 5749 5751 5752 5753 5755 5756 5757 5758 5743 5791 5796 5794 5789 5788 5784 5781 5779 5774 5779 5769 5767 5766 5778 5776 5776 5780 5778 5781 5769 5756 5765 5756 5769 5764 5761 5754 5753 5749
5719 5723 5728 5733 5738 5743 5747 5750 5752 5753 5754 5755 5755 5757 5753 5757 5794 5794 5791 5789 5791 5785 5779 5785 5784 5774 5769 5758 5775 5775 5761 5761 5770 5773 5771 5772 5752 5748 5762 5763 5754 5751 5750 5747 5742
5714 5720 5725 5731 5737 5742 5747 5751 5753 5754 5754 5755 5755 5755 5748 5791 5792 5786 5787 5785 5791 5794 5790 5791 5789 5775 5766 5768 5760 5755 5745 5726 5755 5764 5770 5762 5725 5751 5759 5756 5743 5744 5743 5739 5735
5711 5716 5722 5728 5735 5741 5748 5753 5755 5754 5753 5752 5752 5751 5747 5790 5780 5792 5793 5781 5785 5789 5790 5791 5781 5762 5758 5738 5722 5727 5716 5723 5736 5759 5760 5747 5727 5747 5753 5747 5737 5735 5732 5727 5722
5706 5713 5720 5726 5732 5739 5748 5754 5756 5755 5751 5751 5753 5741 5760 5763 5782 5787 5794 5789 5776 5777 5769 5767 5751 5738 5729 5719 5695 5713 5718 5730 5733 5747 5750 5740 5729 5736 5742 5741 5735 5728 5723 5719 5714
5700 5708 5716 5724 5730 5736 5745 5750 5741 5739 5747 5742 5747 5749 5763 5777 5787 5777 5784 5777 5772 5761 5737 5750 5729 5717 5728 5733 5735 5737 5728 5724 5743 5748 5739 5732 5737 5728 5736 5732 5725 5720 5716 5712 5710
5693 5702 5710 5722 5730 5735 5735 5733 5740 5748 5728 5756 5758 5758 5770 5771 5754 5767 5780 5754 5750 5732 5742 5729 5717 5737 5750 5747 5740 5732 5724 5720 5733 5745 5735 5727 5725 5733 5729 5729 5725 5716 5709 5706 5706
5685 5693 5702 5714 5729 5730 5731 5736 5754 5751 5725 5747 5762 5758 5760 5765 5752 5753 5763 5753 5740 5732 5732 5717 5737 5751 5747 5737 5730 5720 5715 5712 5715 5724 5728 5720 5706 5712 5717 5717 5716 5709 5708 5708 5704
5679 5684 5691 5702 5721 5716 5725 5745 5747 5746 5695 5724 5748 5759 5762 5760 5744 5769 5766 5751 5738 5728 5735 5732 5748 5744 5736 5732 5729 5708 5726 5723 5717 5702 5684 5711 5664 5696 5692 5694 5699 5702 5698 5697 5697
5670 5678 5681 5685 5693 5700 5729 5737 5740 5732 5660 5741 5747 5780 5762 5745 5746 5747 5766 5750 5725 5724 5726 5714 5730 5730 5724 5725 5731 5712 5729 5719 5716 5697 5690 5690 5668 5676 5684 5680 5687 5693 5697 5695 5690
5663 5670 5674 5681 5683 5710 5719 5726 5725 5678 5659 5726 5748 5740 5734 5740 5739 5742 5743 5751 5744 5726 5726 5718 5741 5735 5729 5733 5731 5731 5716 5699 5689 5674 5652 5680 5672 5665 5673 5674 5678 5684 5686 5687 5686
5657 5667 5669 5675 5689 5710 5711 5706 5667 5657 5719 5720 5725 5733 5726 5723 5724 5728 5720 5713 5701 5692 5691 5712 5719 5734 5733 5714 5715 5711 5676 5643 5648 5637 5645 5682 5661 5665 5683 5682 5682 5680 5682 5684 5682
5653 5665 5680 5690 5696 5696 5695 5673 5652 5694 5702 5729 5726 5727 5714 5721 5718 5718 5709 5699 5711 5707 5687 5682 5678 5714 5727 5710 5698 5698 5676 5628 5622 5613 5640 5667 5650 5656 5681 5684 5685 5684 5682 5680 5673
5647 5661 5672 5693 5692 5687 5672 5643 5656 5686 5707 5704 5715 5706 5703 5716 5717 5711 5704 5703 5713 5710 5683 5679 5683 5719 5722 5721 5709 5694 5673 5680 5646 5641 5631 5644 5658 5668 5677 5679 5681 5679 5675 5671 5667
5628 5637 5660 5687 5686 5677 5654 5647 5672 5702 5704 5698 5680 5700 5693 5705 5703 5696 5697 5716 5710 5720 5716 5693 5671 5704 5709 5714 5708 5694 5690 5655 5633 5617 5626 5637 5648 5641 5660 5663 5671 5671 5668 5660 5658
5614 5624 5664 5672 5674 5654 5638 5650 5677 5696 5691 5680 5676 5678 5692 5699 5701 5698 5698 5717 5715 5709 5712 5695 5677 5680 5694 5688 5675 5671 5665 5656 5643 5624 5599 5593 5631 5666 5663 5661 5661 5660 5662 5661 5652
5593 5608 5656 5662 5636 5632 5636 5657 5670 5674 5678 5673 5681 5682 5690 5697 5691 5693 5695 5708 5718 5712 5692 5695 5662 5656 5666 5695 5695 5679 5671 5657 5620 5632 5613 5606 5619 5679 5665 5660 5658 5656 5655 5654 5649
5570 5590 5640 5644 5613 5614 5630 5642 5654 5661 5663 5670 5672 5682 5697 5691 5679 5690 5696 5709 5708 5697 5685 5686 5650 5632 5648 5663 5675 5673 5679 5667 5645 5629 5624 5599 5619 5665 5661 5657 5651 5644 5647 5641 5637
5562 5576 5603 5608 5602 5603 5604 5619 5629 5657 5658 5659 5666 5684 5686 5681 5681 5680 5687 5697 5697 5691 5686 5684 5649 5638 5615 5644 5653 5650 5656 5664 5648 5619 5629 5619 5639 5645 5650 5647 5646 5636 5635 5636 5630
5555 5566 5574 5568 5582 5585 5595 5606 5617 5630 5644 5648 5654 5650 5652 5658 5671 5665 5682 5674 5679 5679 5675 5663 5644 5650 5649 5654 5655 5651 5650 5656 5651 5645 5627 5641 5637 5642 5642 5643 5639 5639 5636 5630 5623
5546 5548 5551 5556 5569 5579 5587 5589 5599 5610 5625 5625 5622 5636 5646 5638 5646 5661 5671 5664 5659 5663 5661 5657 5634 5645 5640 5650 5648 5639 5647 5649 5652 5653 5645 5644 5631 5640 5638 5635 5630 5628 5621 5618 5618
5530 5536 5538 5545 5557 5563 5574 5577 5585 5596 5623 5630 5627 5623 5627 5637 5647 5655 5661 5664 5662 5649 5640 5641 5632 5620 5616 5638 5630 5621 5646 5647 5647 5638 5646 5632 5631 5632 5624 5626 5626 5620 5615 5613 5604